Location: Burgberg
(50.1428°N, 11.0671°E)
Time: 22:57:12
(UTC+00:00)

FALCON 9 DEB - Pass Details

Date: 26 January 2020
Orbit: 429 x 444 km, 53.0° (Epoch: 18 February)

Event Time Altitude Azimuth Distance (km) Brightness Sun altitude
Exits shadow 05:13:42 33° 238° (WSW) 769 4.0 -16.6°
Maximum altitude 05:14:16 35° 215° (SW) 728 4.0 -16.5°
Drops below altitude 10° 05:17:31 10° 148° (SSE) 1,559 6.5 -16.0°
Sets 05:19:44 0° 139° (SE) 2,427 7.8 -15.7°
